CHIBUOYS 000
TTAA00 KLOT 290930

MARINE OBSERVATIONS FOR LAKE MICHIGAN
NATIONAL WEATHER SERVICE CHICAGO/ROMEOVILLE IL
400 AM CDT TUE JUL 29 2014


...COASTAL INLAND STATIONS ETC...
  
CITY           SKY/WX    TMP DP  RH WIND       PRES   REMARKS
GARY AIRPORT   CLEAR     56  55  94 CALM      30.05S                  
CHICAGO MIDWAY CLEAR     62  54  74 CALM      30.03S                  
WHEELING       PTCLDY    59  53  80 CALM      30.04F                  
WAUKEGAN       CLEAR     57  52  83 W3        30.02F                  
KENOSHA        CLEAR     56  53  90 W5        30.02F                  
RACINE         CLOUDY    59  54  83 W7        30.03F                  
MILWAUKEE      CLOUDY    63  53  70 W5        30.01F                  
BENTON HARBOR  CLEAR     45  44  97 E3        30.02F                  

...BUOY REPORTS...
  
STATION/POSITION SKY/WX   TEMP    WIND        VSBY  WAVE
                          AIR SEA DIR/SP/G          HT/PER
                          (F)     (DEG/KT/KT) (MI)  (FT/S)
45002 45.3N 86.4           57 53  300/  6/  8         1
45007 42.7N 87.0           60 60  230/ 10/ 12         1/ 5
45170 41.8N 87.0           63 67  220/  6/  8         2/ 5
45029 42.9N 86.3 NOT AVBL
45161 43.2N 86.4           48 48  100/  4             1
45024 44.0N 86.6           49 39  190/  4/  6         2/ 3

...LAKESIDE REPORTS...
  
STATION/POSITION SKY/WX   TEMP    WIND        VSBY  WAVE
                          AIR SEA DIR/SP/G          HT/PER
                          (F)     (DEG/KT/KT) (MI)  (FT/S)
WAUKEGAN HARBOR            61     270/  3/  5
CHICAGO CRIB               63     200/  5/  7
BURNHAM HARBOR             62     200/  2/  6
CALUMET                    60     210/  3/  4
BURNS HARBOR     NOT AVBL
MICHIGAN CITY              58     140/  3/  4
ST. JOSEPH                 56     160/  3/  5
SOUTH HAVEN                54        CALM
HOLLAND          NOT AVBL
MUSKEGON                   52     200/  8/  8
LUDINGTON                  57     230/  2/  6
BIG SABLE LIGHT            54     180/  6/  9
MANISTEE HARBOR  NOT AVBL
GRAND TRAVERSE L           61     270/  7/ 10
MACKINAW CITY    NOT AVBL
NAUBINWAY        NOT AVBL
PORT INLAND                53     320/  8/ 10
FAIRPORT         NOT AVBL
NORTHPORT PIER             62     310/  9/ 11
SISTER BAY                 64     350/ 12/ 13
ALGOMA                               CALM
KEWAUNEE         NOT AVBL
SHEBOYGAN                  64     280/  7/  9
PORT WASHINGTON            63     280/  5/  7
MILWAUKEE                  64     290/  9/ 10
KENOSHA                    61     260/  9/ 11
$$
  

USA.gov is the U.S. government's official web portal to all federal, state and local government web resources and services.
  • Web Site Owner:
  • National Weather Service
  • Chicago, IL Weather Forecast Office
  • 333 West University Drive
  • Romeoville, IL 60446
  • 815-834-1435 8am-8pm
  • Page Author: LOT Webmaster
  • Web Master's E-mail: w-lot.webmaster@noaa.gov
  • Page last modified: 2-Sep-2010 4:41 PM UTC